Regional Weather Roundup
Issued by NWS Green Bay, WI

Home | Current Version | Previous Version | Graphics & Text | Print | Product List | Glossary Off
Versions: 1 2 3 4 5 6 7 8 9 10 11 12 13 14 15 16 17 18 19 20 21 22 23 24 25 26 27 28 29 30 31 32 33 34 35 36 37 38 39 40 41 42 43 44 45 46 47 48 49 50

000
ASUS43 KGRB 242011
RWRGRB

NORTH-CENTRAL AND NORTHEAST WISCONSIN REGIONAL WEATHER ROUNDUP
NATIONAL WEATHER SERVICE GREEN BAY WI
300 PM CDT SAT JUN 24 2017

WIZ005-009-010>012-018-019-242100-
NORTH CENTRAL WISCONSIN

CITY           SKY/WX    TMP DP  RH WIND       PRES   REMARKS
IRONWOOD       NOT AVBL
MANITOWISH WTR RAIN      53  53 100 W9G17     29.94R
ARBOR VITAE    RAIN      55  52  92 W8        29.94R
EAGLE RIVER    PTSUNNY   61  48  62 W9G17     29.91F
LAND O LAKES   CLOUDY    56  51  81 W7        29.93S
RHINELANDER    PTSUNNY   59  51  75 W9G16     29.93S
PHILLIPS       CLOUDY    62  48  62 NW8G16    29.93F
ANTIGO         CLOUDY    60  47  61 W13       29.93S
TOMAHAWK       NOT AVBL
MERRILL        CLOUDY    65  44  46 W15G23    29.94S
$$

WIZ013-073-242100-
NORTHEAST WISCONSIN

CITY           SKY/WX    TMP DP  RH WIND       PRES   REMARKS
IRON MOUNTAIN  CLOUDY    61  54  77 NW10      29.89R
MARINETTE      RAIN      60  57  89 VRB3      29.91R
OCONTO         CLOUDY    66  51  57 W12G23    29.89F
$$

WIZ017-030-035>037-045-242100-
CENTRAL WISCONSIN

CITY           SKY/WX    TMP DP  RH WIND       PRES   REMARKS
MEDFORD        MOSUNNY   63  44  49 W12G20    29.95S
WAUSAU         PTSUNNY   64  43  46 W17       29.93S
MOSINEE        PTSUNNY   63  45  51 W13G20    29.96S
MARSHFIELD     PTSUNNY   62  43  49 W14G23    29.97S
WISC RAPIDS    MOSUNNY   67  42  40 W16G28    29.99R
STEVENS POINT  PTSUNNY   63  40  42 W14       29.97S
WAUPACA        MOSUNNY   70  41  34 W13G24    29.96R
SHAWANO        CLOUDY    67  47  48 W10G17    29.92S
CLINTONVILLE   PTSUNNY   68  41  37 W14       29.92F
WAUTOMA        MOSUNNY   67  45  45 W22G28    29.97S
$$

WIZ038-039-048-051-242100-
FOX VALLEY

CITY           SKY/WX    TMP DP  RH WIND       PRES   REMARKS
NWS GREEN BAY  CLOUDY    69  47  45 W18G26    29.92S
APPLETON       PTSUNNY   66  37  34 W17G28    29.93S
OSHKOSH        PTSUNNY   67  45  45 W15G26    29.94S
FOND DU LAC    PTSUNNY   69  45  41 W16G23    29.95S
$$

WIZ022-050-052-242100-
EAST CENTRAL WISCONSIN

CITY           SKY/WX    TMP DP  RH WIND       PRES   REMARKS
EPHRAIM        LGT RAIN  58  55  91 W7        29.89S
WASHINGTON ISL RAIN      57  54  89 W6        29.89R
STURGEON BAY     N/A     61  55  81 NW8         N/A
MANITOWOC      CLOUDY    68  47  46 W13G25    29.93R
SHEBOYGAN      MOSUNNY   70  47  43 W18G26    29.93S
$$

LMZ563-521-522-541>543-242100-
LAKESHORE

STATION/POSITION TIME  TEMP    WIND        PRES    VSBY  WAVE
                       AIR SEA DIR/SP/G                  HT/PER
                 (UTC) (F)     (DEG/KT/KT) (MB)    (MI)  (FT/S)
SHEBOYGAN LKSHOR 2000   68     270/ 15/ 17 1013.2R
KEWAUNEE LKSHORE 1942   67     270/ 12/ 18 1012.3R
NORTHPORT PIER   1940   60     290/  6/ 10 1012.2R
N MID LAKE BUOY  1950   60 59  210/  8/  8 1012.5R         0
S GREEN BAY BUOY 2000   65     250/ 17/ 19 1012.3
CHAMBERS ISLAND  1940   59     240/  3/  9 1012.2R
MENOMINEE LKSHOR 1936          310/  5/  7 1011.7R
$$




USA.gov is the U.S. government's official web portal to all federal, state and local government web resources and services.